STARLINK-1680, 46558

Orbit data source: Space-Track

STARLINK-1680, 46558 is a payload satellite owned by SpaceX/Seattle (US) in LEO that was launched on Tue, 06 Oct 2020 UTC via an FALCON 9 launch vehicle from the Air Force Eastern Test Range (AFETR). Payload-class satellites include a variety of spacecraft equipped with specific instruments for various scientific and technological missions. These include communications satellites like Starlink; space stations such as the ISS; scientific satellites like the Hubble; Earth observation satellites from companies like Planet Labs, Umbra, and HawkEye 360; GPS; miniature CubeSats for education and research; and military/defense satellites.

Loading next visibility...
Identifier
46558, 2020-070AC
Orbit
LEO
Country
Flag of USUS
Related business
Manufacturer
SpaceX/Seattle
Mission
Partially operational Commercial Communications
Bus & Motor
STARLINK, Unknown motor
Mass
260 kg wet, ~248 kg dry
Launch date (UTC)
2020-10-06 (5 years ago)
Launch vehicle
FALCON 9
Launch site
Air Force Eastern Test Range (AFETR)
Object type
Payload
Rocket body
Debris
Shape & HBR
Box + 1 Pan, 10.1 m
Radar Cross Section
13.562 m², Large (>1 m²)

Expand to show TLE details & history
Last TLE update: 4 hours ago

TLE from 4 hours ago
0 STARLINK-1680
1 46558U 20070AC  26034.50002314  .00200763  00000-0  20973-2 0  9998
2 46558  53.0458 278.6784 0004673 111.6378  74.5370 15.63317714  5968
Epoch: 2026-02-03T12:00Z
TLE epoch observation values (Epoch: 2026-02-03T12:00:01.999Z)
Latitude
-5.08381°
Longitude
148.80597°
Altitude
378.941 km
Speed
7.684 km/s
True Right ascension
06h 49m 58s
True Declination
-5° 03' 07"
Sunlit
Object was in full shadow at epoch
Visualization orbit readout
Latitude
Unknown
Longitude
Unknown
Altitude
Unknown
Speed
Unknown
Apparent Right ascension
Unknown
Apparent Declination
Unknown
Sunlit
N/A
Visualization observer readout
Local Sidereal Time
17:49:57
Azimuth
Unknown
Elevation
Unknown
Doppler factor
Unknown
Orbital elements
Apogee altitude
381.517 km
Perigee altitude
375.203 km
Semi-major axis
6,756.497 km
Eccentricity
0.00047
Inclination
53.0458°
RAAN
278.6784°
Arg. of periapsis
111.6378°
True anomaly
74.58862°
Mean anomaly
74.537°
Eccentric anomaly
74.56281°
Mean motion
3.90806 °/min
Orbital period
92.12 mins
BSTAR
0.0020973
Loading maneuver chart data...
Computing Atmospheric mass density...
Loading historical data...
Loading historical data...
Loading historical data...
Loading historical data...
Loading historical data...
Loading historical data...
Loading historical data...

Documentation

Showing up to 5 results
|